EW9980 Weather Reports


time (UTC)temp
C
wind
direction
speed
KPH
gust
KPH
rain 1hr
cm
rain 24hr
cm
rain mn
cm
humidity
%
barometer
mb
20260504204505 16 302 8.0 27.4 0.00 0.00 0.00 21 1004.9
20260504203006 16 268 14.5 24.1 0.00 0.00 0.00 24 1004.8
20260504201502 16 291 14.5 24.1 0.00 0.00 0.00 22 1004.9
20260504200100 16 297 20.9 25.7 0.00 0.00 0.00 22 1004.8
20260504194559 15 259 14.5 22.5 0.00 0.00 0.00 23 1004.9
20260504193058 15 315 17.7 24.1 0.00 0.00 0.00 27 1005.0
20260504191606 15 252 14.5 20.9 0.00 0.00 0.00 23 1005.3
20260504190112 15 324 11.3 24.1 0.00 0.00 0.00 31 1005.4
20260504184552 15 276 6.4 17.7 0.00 0.00 0.00 27 1005.6
20260504183050 14 280 8.0 14.5 0.00 0.00 0.00 28 1005.7
20260504181554 14 226 6.4 17.7 0.00 0.00 0.00 28 1005.9
20260504180046 13 291 6.4 11.3 0.00 0.00 0.00 29 1006.0
20260504174545 13 258 8.0 11.3 0.00 0.00 0.00 33 1006.1
20260504173040 13 94 1.6 8.0 0.00 0.00 0.00 33 1006.4
20260504171537 12 282 3.2 9.7 0.00 0.00 0.00 37 1006.5
20260504140107 1 328 1.6 4.8 0.00 0.00 0.00 63 1008.3
20260504081529 -1 49 0.0 3.2 0.00 0.00 0.00 63 1008.2
20260504050010 2 45 0.0 1.6 0.00 0.00 0.00 52 1007.7
20260504044507 3 46 0.0 1.6 0.00 0.00 0.00 48 1007.5
20260504043007 3 41 0.0 6.4 0.00 0.00 0.00 48 1007.5
20260504041509 3 91 0.0 4.8 0.00 0.00 0.00 47 1007.3
20260504040006 4 112 0.0 1.6 0.00 0.00 0.00 46 1007.1
20260504034505 5 243 0.0 3.2 0.00 0.00 0.00 44 1007.0
20260504033008 6 102 0.0 3.2 0.00 0.00 0.00 42 1006.8
20260504031506 7 105 0.0 4.8 0.00 0.00 0.00 41 1006.6
20260504030004 9 31 1.6 4.8 0.00 0.00 0.00 35 1006.6
20260504024503 10 347 1.6 3.2 0.00 0.00 0.00 31 1006.4
20260504023003 12 341 1.6 4.8 0.00 0.00 0.00 29 1006.3
20260504021501 14 284 3.2 8.0 0.00 0.00 0.00 23 1006.2
20260504020001 16 234 4.8 8.0 0.00 0.00 0.00 20 1006.0
20260504014606 16 256 4.8 11.3 0.00 0.00 0.00 19 1006.0
20260504013100 17 290 3.2 9.7 0.00 0.00 0.00 17 1006.1
20260504011558 17 287 6.4 14.5 0.00 0.00 0.00 16 1006.3
20260504010105 17 297 8.0 14.5 0.00 0.00 0.00 16 1006.5
20260504004556 16 314 4.8 11.3 0.00 0.00 0.00 17 1006.5
20260504003057 17 264 3.2 6.4 0.00 0.00 0.00 15 1006.7
20260504001553 17 287 9.7 17.7 0.00 0.00 0.00 15 1006.8
20260504000125 18 236 11.3 17.7 0.00 0.00 0.00 12 1006.9
20260503234556 18 264 6.4 17.7 0.00 0.00 0.00 15 1007.2
20260503233044 18 303 14.5 22.5 0.00 0.00 0.00 14 1007.3
20260503231541 17 290 14.5 24.1 0.00 0.00 0.00 14 1007.4
20260503230038 17 276 14.5 22.5 0.00 0.00 0.00 18 1007.6
20260503224538 17 283 12.9 22.5 0.00 0.00 0.00 14 1007.7
20260503223039 18 291 9.7 25.7 0.00 0.00 0.00 17 1007.9
20260503221546 17 295 12.9 20.9 0.00 0.00 0.00 19 1008.2
20260503220034 17 252 8.0 14.5 0.00 0.00 0.00 16 1008.3
20260503214531 17 276 9.7 19.3 0.00 0.00 0.00 15 1008.5
20260503213029 18 257 11.3 19.3 0.00 0.00 0.00 14 1008.7
20260503211527 17 262 8.0 17.7 0.00 0.00 0.00 15 1009.1
20260503210024 16 167 3.2 9.7 0.00 0.00 0.00 17 1009.3